Vertical_Velocity
-1 -0 -0 -0 -0 -0 -0 0 -0 -0 -0 -0 -1 -1 -1 -1 -1 -1 -1 -1 -1 -1 -1 -1 -1 -1 -1 -1 -1 -0 -0 -0 -0 -0 -0 -0 -0 -0 -0 -0 -0 0 0 -0 -2 -4 -6 -3 -1 -1 -1 -1 -1 -1 -1 -2 -2 -2 -1 -2 -2 -2 -1 -1 -1 0 2 -1 -2 -2 -1 -2 -2 -3 -2 -1 -1 -2 -2 -2 -2 -1 -1 -1 -1 -1 -1 -1 -1 -1 -1 -1 -1 -1 -1 -1 -2 -2 -2 -2 -3 -3 -2
-0 -0 -0 -0 -0 -0 -0 -0 -0 -0 -0 -1 -1 -1 -1 -1 -1 -1 -1 -1 -1 -1 -1 -1 -1 -1 -0 -0 -0 -0 -0 -0 -0 -0 -0 0 0 -0 -0 -0 -0 -0 0 -0 -2 -4 -6 -2 -1 -1 -1 -1 -1 -0 1 -2 -2 -2 -2 -2 -2 -2 -3 -2 -1 -1 2 -1 -2 -2 -1 -1 -2 -2 -2 -1 -1 -0 -0 -1 -1 -1 -1 -1 -1 -1 -1 -1 -1 -1 -1 -1 -1 -1 -1 -1 -1 -1 -1 -1 -2 -3 -2
-0 -1 -1 -0 -0 -0 -0 -0 -0 -0 -0 -1 -1 -1 -1 -1 -1 -1 -1 -1 -1 -1 -1 -1 -1 -1 -0 -0 -0 -0 -0 -0 -0 -0 -0 -0 -0 -0 -0 -0 -0 -0 0 0 -2 -4 -5 -2 -1 -0 -1 -1 -0 1 3 0 -2 -3 -2 -2 -2 -2 -3 -2 -2 -1 1 1 -0 -2 -3 -2 -1 -1 -2 -2 -2 -1 -1 -1 -2 -2 -2 -2 -1 -1 -1 -1 -1 -1 -1 -1 -1 -1 -1 -1 -1 -1 -1 -1 -1 -2 -2
-0 -0 -1 -1 -0 -0 -0 -0 -0 -0 -0 -1 -1 -1 -1 -1 -1 -1 -1 -1 -1 -1 -1 -1 -1 -1 -0 -0 -0 -1 -1 -1 -1 -1 -0 -0 -0 -0 -0 -0 -0 -0 0 -0 -3 -4 -3 -1 -0 0 -0 -1 -1 1 3 1 -1 -3 -2 -1 -1 -1 -2 -2 -2 -1 -1 -1 -2 -4 -3 -3 -2 -1 -1 -1 -1 -1 -2 -2 -2 -2 -2 -2 -2 -2 -2 -2 -2 -2 -2 -1 -1 -1 -1 -1 -1 -1 -1 -1 -1 -1 -1
-0 -0 -0 -0 -0 -0 -0 -0 -0 -0 -1 -1 -0 -0 -1 -0 -0 -0 -1 -1 -1 -1 -1 -1 -1 -1 -1 -1 -1 -1 -1 -1 -1 -1 -1 -1 -1 -1 -1 -1 -0 -0 -0 -1 -3 -4 -4 -1 0 -0 0 -0 -0 0 2 2 -1 -3 -2 -1 -1 -1 -2 -2 -2 -1 -1 -2 -1 -1 -2 -2 -2 -1 -1 -1 -1 -1 -1 -1 -1 -1 -2 -2 -2 -2 -2 -2 -2 -2 -2 -2 -1 -1 -1 -1 -1 -1 -1 -1 -1 -1 -1
-0 -0 -0 -1 -1 -0 -0 -0 -0 -0 -0 -0 -0 -0 -0 0 0 -0 -0 -0 -1 -1 -1 -1 -1 -1 -1 -1 -1 -1 -1 -1 -1 -1 -1 -1 -1 -1 -1 -1 -1 -1 -1 -1 -2 -3 -5 -1 0 -0 -0 -0 -0 0 1 1 -0 -2 -2 -1 -0 -1 -2 -1 -1 -1 -1 -1 -1 -1 -1 -1 -1 -1 -1 -1 -1 -0 -1 -1 -1 -1 -1 -1 -2 -2 -2 -2 -2 -2 -2 -2 -1 -1 -1 -1 -1 -1 -1 -1 -1 -1 -1
1 1 1 0 0 0 0 0 -0 -0 0 1 1 1 1 1 0 -0 -0 -1 -1 -1 -1 -1 -1 -1 -1 -1 -1 -1 -1 -1 -1 -1 -1 -1 -1 -1 -1 -1 -1 -1 -1 -1 -1 -2 -5 -2 -1 -1 -0 -0 0 1 2 1 0 -1 -2 -1 -0 -1 -1 -1 -1 -1 -1 -1 -1 -1 -1 -1 -1 -1 -1 -0 -0 -0 -1 -1 -1 -1 -1 -1 -1 -1 -1 -1 -1 -1 -1 -1 -1 -1 -1 -1 -1 -1 -1 -1 -1 -1 -1
2 2 2 2 2 2 2 2 2 1 1 2 2 1 1 1 0 -0 -1 -1 -1 -1 -1 -1 -1 -1 -1 -1 -1 -1 -1 -1 -1 -1 -1 -1 -1 -1 -1 -1 -1 -1 -1 -1 -0 -1 -5 -2 -1 -1 -1 -1 0 1 2 1 0 -0 -1 -1 -1 -1 -1 -1 -1 -1 -2 -1 -1 -1 -1 -2 -1 -1 -1 -1 -1 -1 -1 -1 -1 -1 -1 -1 -1 -0 -0 -0 -1 -1 -1 -1 -1 -1 -1 -1 -1 -1 -1 -1 -1 -1 -0
1 1 1 1 1 1 2 2 2 2 1 1 1 1 0 -0 -0 -1 -1 -1 -1 -1 -1 -1 -1 -1 -1 -1 -1 -1 -1 -1 -1 -1 -1 -1 -1 -1 -1 -1 -1 -1 -1 -1 -0 -1 -3 -2 -1 -1 -1 -1 -0 1 2 1 0 -0 0 0 -0 -0 -1 -1 -1 -1 -1 -1 -1 -1 -1 -1 -1 -1 -1 -1 -1 -1 -1 -1 -1 -1 -1 -1 -1 -0 -0 -0 -0 -0 -0 -1 -1 -1 -1 -1 -1 -1 -1 -1 -1 -1 -0
-0 -0 -0 -0 -0 -0 0 0 1 1 0 0 0 -0 -0 -0 -0 -0 -0 -0 -0 -0 -0 -1 -1 -1 -1 -1 -1 -1 -1 -1 -1 -1 -1 -1 -1 -1 -1 -1 -1 -1 -1 -1 -0 -1 -3 -3 -1 -0 -1 -1 -1 -0 0 -0 -0 -0 0 1 0 -1 -1 -1 -1 -1 -1 -1 -1 -1 -1 -1 -1 -1 -1 -1 -1 -1 -1 -1 -1 -1 -1 -1 -1 -1 -1 -1 -1 -1 -1 -1 -1 -1 -1 -1 -1 -1 -1 -1 -1 -1 -0
0 -0 -0 -0 -0 -0 -0 -0 0 0 0 0 0 0 0 -0 -0 -0 -0 -0 -0 -0 -1 -1 -1 -1 -1 -1 -1 -1 -1 -1 -1 -1 -1 -1 -1 -1 -1 -1 -1 -1 -1 -1 -0 -1 -3 -3 -1 -0 -0 -0 -0 -0 -0 -1 -1 -1 -1 0 -0 -1 -2 -1 -1 -1 -1 -1 -1 -1 -1 -1 -1 -1 -1 -1 -2 -2 -2 -2 -2 -2 -1 -1 -1 -1 -1 -1 -1 -1 -1 -1 -1 -1 -1 -1 -1 -1 -0 -1 -1 -1 -0
1 1 1 1 1 1 0 0 0 0 0 0 1 1 1 0 0 0 -0 -0 -0 -1 -1 -1 -1 -1 -1 -1 -1 -1 -1 -1 -1 -1 -1 -1 -1 -1 -1 -1 -1 -1 -1 -1 -1 -2 -5 -2 -1 -1 -1 -0 -0 -0 -0 -0 -1 -1 -0 -0 -1 -1 -2 -1 -1 -1 -1 -0 -1 -1 -1 -1 -1 -1 -1 -1 -1 -1 -2 -2 -2 -2 -2 -2 -2 -2 -2 -2 -2 -2 -1 -1 -1 -1 -1 -1 -1 -1 -0 -0 -0 -0 -0
1 1 1 1 1 1 1 1 1 0 0 0 0 1 1 1 1 0 -0 -0 -1 -1 -1 -1 -1 -1 -1 -1 -1 -1 -1 -1 -1 -1 -1 -1 -1 -1 -1 -1 -1 -1 -1 -0 -1 -3 -5 -1 -0 -1 -1 -1 -0 -0 -0 -0 -0 -0 -0 -0 -1 -2 -2 -1 -1 -1 -1 -0 -0 -0 -0 -1 -1 -1 -1 -1 -1 -1 -1 -1 -2 -2 -2 -2 -2 -2 -2 -2 -2 -2 -2 -2 -2 -1 -1 -1 -1 -0 -0 -0 -0 -0 -0
0 0 0 0 0 0 0 1 1 1 0 0 0 0 0 0 0 0 -0 -0 -0 -1 -1 -1 -1 -1 -1 -1 -1 -1 -1 -1 -1 -1 -1 -1 -1 -1 -1 -1 -1 -1 -1 -1 -3 -5 -2 -1 -1 -1 -1 -1 -1 -1 -1 -1 -1 -1 -1 -1 -1 -2 -3 -2 -1 -1 -1 -1 -0 -0 -0 -0 -0 -1 -0 -0 -0 -1 -1 -1 -1 -2 -2 -2 -2 -2 -2 -2 -2 -2 -2 -2 -2 -2 -2 -2 -1 -1 -1 -0 -0 -0 -0
-0 -0 -0 -1 -1 -1 -1 -0 -0 0 0 0 -0 -0 -0 -0 -0 -0 -0 -1 -1 -0 -0 -1 -1 -1 -1 -1 -1 -1 -1 -1 -1 -1 -2 -2 -2 -2 -1 -1 -1 -1 -1 -3 -4 -4 0 -1 -1 -1 -2 -2 -2 -1 -1 -1 -1 -1 -1 -1 -1 -2 -2 -2 -2 -1 -1 -1 -1 -1 -0 -0 -0 -0 -0 -0 -0 -0 -0 -1 -1 -1 -2 -2 -2 -2 -2 -1 -2 -2 -2 -2 -2 -2 -2 -2 -2 -1 -1 -1 -0 -0 -0
0 -0 -0 -1 -1 -1 -1 -1 -1 -1 -1 -1 -1 -1 -1 -1 -1 -1 -0 -1 -1 -1 -0 -0 -1 -1 -1 -1 -1 -1 -1 -1 -1 -2 -2 -2 -2 -2 -2 -1 -1 -1 -1 -4 -3 -0 1 0 -1 -1 -1 -1 -1 -1 -1 -1 -1 -1 -1 -1 -2 -2 -2 -3 -2 -2 -1 -1 -1 -1 -1 -0 -0 -0 -0 -0 -0 -0 -0 -1 -1 -1 -1 -1 -1 -1 -1 -1 -1 -2 -2 -2 -2 -2 -2 -2 -2 -2 -1 -1 -1 -1 -0
-0 -0 -0 -0 -1 -1 -1 -1 -1 -1 -1 -1 -1 -1 -1 -1 -1 -0 0 -0 -1 -1 -0 -0 -1 -1 -1 -1 -1 -1 -1 -1 -1 -1 -1 -1 -1 -1 -1 -1 -1 -1 -2 -4 -2 1 2 1 1 -0 -0 -1 -1 -1 -1 -1 -1 -1 -1 -1 -2 -2 -2 -3 -3 -2 -2 -1 -1 -1 -1 -1 -1 -1 -0 -0 -0 -1 -0 -1 -1 -1 -1 -1 -1 -1 -1 -1 -1 -1 -2 -2 -2 -2 -2 -1 -1 -1 -1 -2 -1 -1 -1
-1 -1 -1 -1 -1 -1 -1 -1 -1 -1 -1 -1 -1 -1 -1 -1 -1 -0 0 -0 -1 -1 -1 -0 -0 -1 -1 -1 -1 -1 -1 -1 -1 -1 -0 -0 -1 -1 -1 -0 -1 -1 -3 -2 -1 0 1 2 1 0 0 -0 -1 -1 -0 -0 -1 -1 -1 -1 -1 -1 -2 -2 -2 -3 -2 -2 -1 -1 -1 -1 -1 -1 -1 -1 -1 -1 -1 -1 -1 -1 -1 -1 -1 -1 -1 -1 -1 -1 -2 -2 -2 -2 -2 -1 -1 -1 -1 -2 -2 -1 -1
-2 -1 -1 -1 -1 -1 -1 -1 -0 -0 -0 -1 -1 -1 -1 -1 -1 -1 -0 -0 -1 -1 -1 -1 -1 -1 -1 -1 -1 -2 -2 -2 -2 -1 -1 -0 -0 -0 -0 -1 -1 -2 -3 -1 -1 -0 1 1 1 0 1 0 -1 -2 -1 -1 -1 -1 -1 -1 -1 -1 -1 -1 -2 -2 -3 -2 -2 -2 -1 -1 -1 -1 -1 -1 -1 -1 -1 -1 -1 -1 -1 -1 -1 -1 -1 -1 -1 -1 -1 -2 -2 -2 -1 -1 -1 -1 -1 -1 -1 -1 -1
-1 -1 -1 -1 -1 -1 -1 -1 -1 -1 -0 -1 -1 -1 -1 -2 -2 -2 -1 -1 -1 -1 -1 -1 -1 -1 -1 -1 -1 -2 -1 -2 -2 -2 -2 -2 -1 -1 -1 -1 -1 -1 -1 -1 -1 -1 -0 0 -0 -0 -0 0 -1 -2 -2 -1 -1 -1 -1 -1 -1 -1 -1 -1 -1 -1 -2 -2 -2 -2 -2 -1 -1 -1 -1 -1 -1 -1 -1 -1 -1 -1 -1 -1 -1 -1 -1 -1 -1 -1 -1 -2 -2 -2 -2 -1 -1 -1 -1 -1 -1 -1 -1
-1 -1 -1 -1 -1 -1 -1 -1 -1 -1 -1 -1 -1 -1 -1 -2 -2 -2 -2 -1 -1 -1 -1 -1 -1 -1 -1 -1 -1 -1 -1 -1 -1 -2 -2 -2 -2 -2 -1 -1 -1 -1 -1 -1 -1 -1 -1 -1 -1 -1 -0 0 -1 -2 -3 -2 -1 -1 -1 -1 -1 -1 -1 -1 -1 -1 -1 -1 -1 -1 -2 -2 -1 -1 -1 -1 -1 -0 -1 -1 -1 -0 -0 -1 -1 -1 -1 -1 -1 -1 -1 -2 -2 -2 -2 -2 -2 -1 -1 -1 -1 -1 -1
-1 -1 -0 -1 -1 -1 -1 -1 -1 -1 -1 -1 -1 -2 -3 -2 -2 -2 -2 -2 -2 -2 -1 -1 -1 -1 -1 -1 -1 -0 -0 -1 -1 -1 -2 -1 -1 -2 -1 -1 -1 -1 -1 -1 -1 -1 -1 -1 -1 -1 -0 -0 -1 -2 -3 -2 -1 -1 -1 -1 -1 -1 -1 -1 -1 -1 -1 -1 -1 -1 -2 -2 -2 -2 -1 -1 -1 -1 -0 -0 -0 -0 -0 -0 -0 -0 -0 -0 -0 -1 -1 -1 -2 -2 -2 -2 -2 -2 -2 -2 -2 -2 -1
-1 -1 -1 -2 -2 -2 -2 -2 -2 -1 -1 -1 -1 -2 -2 -2 -2 -2 -2 -2 -2 -2 -2 -2 -2 -1 -1 -1 -1 -0 -0 -0 -0 -1 -1 -1 -1 -1 -1 -1 -1 -1 -1 -1 -1 -1 -1 -1 -1 -1 -1 -0 -1 -2 -3 -2 -1 -1 -1 -1 -1 -1 -1 -1 -1 -1 -1 -1 -1 -1 -2 -2 -3 -3 -2 -2 -2 -1 -1 -0 -0 -0 -0 -0 -0 -0 -0 0 0 -0 -0 -1 -1 -1 -2 -2 -2 -2 -2 -2 -2 -2 -2
-0 -1 -0 -1 -1 -2 -1 -2 -2 -2 -2 -1 -1 -1 -1 -1 -1 -2 -2 -1 -1 -2 -2 -2 -2 -1 -0 -1 -1 -1 -0 -0 -0 -0 -0 -1 -1 -1 -1 -1 -1 -1 -1 -1 -1 -1 -1 -1 -1 -1 -1 -1 -1 -2 -3 -2 -1 -1 -1 -1 -1 -1 -1 -1 -1 -1 -1 -1 -1 -1 -1 -1 -2 -3 -3 -3 -3 -2 -1 -1 -1 -0 -1 -0 -0 -0 -0 0 0 0 -0 -0 -1 -1 -1 -1 -1 -1 -1 -1 -2 -2 -2
-0 -0 1 1 -1 -2 -1 -1 -1 -2 -2 -1 -0 -1 -1 -1 -1 -1 -1 -1 -0 -1 -1 -1 -1 -1 -1 -1 -1 -1 -1 -1 -0 -0 -0 -0 -1 -1 -1 -1 -0 -0 -0 -0 -1 -1 -1 -1 -1 -1 -1 -1 -1 -2 -2 -1 -1 -1 -1 -1 -1 -1 -1 -1 -1 -0 -1 -1 -0 -0 -1 -1 -2 -3 -3 -2 -2 -2 -3 -2 -1 -1 -1 -1 -0 -0 -0 -0 0 0 0 -0 -0 -1 -1 -1 -1 -1 -1 -1 -1 -1 -1
-0 0 1 0 -1 -2 -1 -0 -1 -1 -2 -1 -0 -0 -1 -1 -1 -1 -1 -0 -0 -0 -0 -1 -1 -1 -1 -1 -1 -1 -1 -1 -1 -0 -0 -0 -0 -0 -1 -1 -0 -0 -0 -0 -1 -1 -1 -1 -1 -1 -1 -1 -1 -2 -2 -1 -1 -1 -1 -1 -1 -1 -1 -1 -1 -0 -0 -0 -0 -0 -0 -0 -1 -1 -2 -1 -1 -0 -1 -2 -2 -1 -1 -1 -1 -0 -0 -0 -0 -0 -0 -0 -0 -0 -1 -1 -2 -2 -2 -1 -1 -1 -1
0 1 1 0 -1 -2 -1 -1 -0 -1 -1 -1 -0 -0 -1 -1 -1 -1 -1 -1 -0 -0 -0 -0 -1 -1 -1 -1 -1 -1 -1 -1 -1 -1 -0 -0 -0 -0 -0 -1 -1 -0 -0 -0 -1 -1 -1 -1 -1 -1 -0 -0 -1 -1 -3 -2 -1 -1 -1 -1 -1 -1 -1 -1 -1 -0 -0 -0 -0 -0 -0 -0 -0 -0 -0 -1 -1 -1 -1 -2 -2 -1 -1 -1 -1 -1 -1 -1 -1 -1 -1 -0 -0 0 -0 -1 -1 -2 -2 -2 -2 -1 -1
-0 1 1 -0 -1 -2 -1 -0 -0 -1 -1 -1 -1 -1 -1 -1 -1 -1 -1 -1 -1 -1 -1 -0 -1 -1 -1 -1 -1 -1 -1 -1 -1 -1 -1 -1 -1 -0 -0 -1 -1 -1 -1 -1 -1 -1 -1 -1 -0 1 1 1 0 -1 -2 -2 -1 -1 -1 -1 -1 -1 -1 -0 -0 -0 -0 -0 -0 -0 -0 -0 0 0 0 0 0 -0 -1 -1 -1 -1 -2 -1 -1 -1 -1 -1 -1 -1 -1 -1 -0 -0 0 -0 -1 -1 -2 -2 -2 -1 -1
-0 0 0 -1 -1 -1 -0 -0 -0 -1 -1 -1 -1 -1 -1 -1 -1 -1 -1 -1 -1 -1 -1 -1 -1 -1 -1 -1 -1 -1 -1 -1 -1 -1 -1 -1 -1 -1 -1 -0 -1 -1 -1 -0 -0 -0 -0 -0 0 1 1 2 1 0 -1 -3 -2 -1 -1 -1 -1 -1 -0 -0 -0 -0 -0 -0 -0 -0 -0 0 0 0 0 0 0 -0 -0 0 -1 -2 -2 -1 -2 -3 -2 -2 -2 -1 -1 -1 -1 -1 -0 -0 -1 -1 -1 -1 -1 -1 -1
0 -0 -0 -1 -1 -0 0 -0 -1 -1 -1 -1 -1 -1 -1 -1 -1 -1 -1 -1 -1 -1 -1 -1 -1 -1 -1 -1 -1 -1 -2 -1 -1 -1 -1 -1 -1 -1 -1 -1 -1 -1 -0 -0 -0 -0 -0 -0 0 0 0 1 2 2 3 -1 -3 -2 -0 -1 -1 -1 -0 -0 -0 0 -0 -0 -0 -0 -0 -0 0 0 0 1 0 -0 -1 -1 -2 -3 -3 -2 -2 -3 -3 -3 -3 -3 -2 -2 -2 -2 -1 -1 -1 -1 -1 -1 -1 -1 -1
0 -0 -1 -1 -0 -0 -0 -1 -1 -1 -1 -1 -1 -1 -1 -1 -1 -1 -1 -1 -1 -1 -1 -1 -1 -1 -1 -1 -1 -1 -2 -2 -1 -1 -1 -1 -1 -1 -1 -1 -1 -1 -1 -0 -1 -1 -1 -1 -0 -0 -0 -0 1 2 2 0 -2 -3 -0 -0 -0 -0 -0 -0 -0 0 0 -0 -0 -0 -0 -0 -0 -0 0 0 0 0 -0 -1 0 1 1 -0 -0 -1 -1 -2 -3 -3 -3 -3 -3 -2 -2 -2 -1 -1 -1 -1 -1 -1 -1
0 -0 -2 -1 -1 -0 -1 -1 -1 -1 -1 -1 -1 -1 -1 -1 -1 -1 -1 -1 -1 -1 -1 -1 -1 -1 -1 -1 -1 -2 -2 -2 -1 -1 -0 -1 -1 -1 -1 -1 -1 -0 -0 -0 -1 -1 -1 -1 -0 -0 -0 0 0 0 0 1 -0 -2 -2 -1 -0 -0 -0 -0 -0 -0 -0 -0 -0 -0 -0 -0 -0 -0 -0 -0 0 0 0 -1 1 3 5 4 3 2 0 -0 -1 -2 -3 -3 -3 -3 -2 -2 -2 -2 -1 -1 -1 -1 -1
0 -0 -2 -1 -1 -0 -1 -1 -1 -1 -1 -1 -1 -1 -1 -1 -1 -1 -1 -1 -1 -1 -2 -2 -2 -2 -2 -2 -2 -2 -2 -2 -1 -1 -1 -0 -0 -0 -1 -1 -1 -0 -0 -0 -0 0 -0 -0 -0 0 0 0 1 1 1 1 2 1 -3 -2 -1 -0 -0 -0 -0 -0 -0 -0 -0 -0 -0 -0 -0 -0 -0 -0 -0 0 0 -0 -1 -0 1 4 4 3 2 1 0 -1 -1 -2 -2 -2 -2 -2 -2 -2 -2 -2 -1 -1 -1
-0 -1 -1 -1 -0 -0 -0 -0 -1 -1 -1 -1 -1 -1 -1 -1 -1 -1 -1 -2 -2 -2 -2 -2 -2 -2 -2 -2 -2 -2 -2 -1 -1 -1 -1 -0 0 0 -0 -1 -1 -0 -0 -0 0 0 1 0 0 0 0 0 0 1 1 2 2 2 -0 -2 -1 -0 -0 -0 -0 -0 -0 -0 -0 -0 -0 -0 -0 -0 -0 -0 -0 -0 0 0 0 -0 -1 1 2 3 2 0 -0 -0 -0 -1 -1 -2 -2 -3 -3 -3 -3 -3 -2 -2 -1
-0 -1 -1 -0 -0 -0 -0 -1 -1 -1 -1 -1 -1 -1 -1 -1 -1 -1 -1 -2 -2 -2 -2 -2 -2 -2 -2 -2 -2 -1 -1 -2 -1 -1 -1 -0 0 0 0 -0 -0 -0 -1 -0 0 0 0 0 0 -0 -0 0 0 1 1 2 1 0 -0 -2 -2 -0 -0 -0 -1 -1 -1 -1 -0 -0 -0 -0 -0 -0 -0 -0 -0 -0 -0 -0 0 0 0 -0 0 1 2 2 2 1 1 0 -0 -1 -1 -2 -3 -4 -4 -4 -3 -2 -2
-0 -0 -0 -0 -0 -1 -0 -1 -1 -1 -1 -1 -1 -1 -0 -1 -1 -2 -2 -1 -1 -1 -2 -2 -2 -2 -2 -2 -2 -1 -1 -1 -2 -1 -1 -1 -0 0 0 0 0 -0 -1 -0 0 0 0 0 -0 -0 -0 0 1 1 1 1 1 -0 0 -1 -2 -2 -0 -0 -0 -1 -1 -1 -1 -1 -0 -0 -0 -0 -0 -0 -0 -1 -1 -1 -0 -0 0 0 0 0 -0 1 2 2 1 1 1 1 0 -0 -1 -2 -3 -4 -4 -3 -2
-0 -0 -0 -0 -1 -1 -1 -1 -1 -1 -0 -1 -1 -1 -1 -1 -1 -2 -1 -1 -1 -1 -2 -2 -3 -3 -2 -2 -2 -1 -1 -1 -1 -1 -1 -1 -1 -0 -0 0 1 1 -0 -0 -0 -0 -1 -0 -0 -0 -0 0 0 1 1 1 0 -0 0 0 -1 -2 -2 -1 -0 -0 -1 -0 -0 -1 -1 -1 -1 -0 -0 -0 -0 -0 -1 -1 -1 -0 -0 0 0 0 0 -0 1 2 2 2 1 1 1 2 2 2 1 -2 -3 -4 -2
0 0 -0 -0 -0 -0 0 -0 -1 -0 -0 -1 -1 -1 -1 -1 -1 -1 -1 -1 -1 -1 -2 -2 -3 -3 -2 -2 -2 -1 -1 -1 -1 -0 -0 -0 0 1 -0 -0 1 1 1 1 -0 -1 -1 -1 -0 -0 -0 -0 -0 -0 1 -0 -0 -0 1 1 0 -1 -2 -1 -1 -1 -2 -0 0 -0 -1 -1 -1 -1 -0 -0 -0 -0 -0 -0 -0 -0 -0 -0 0 0 1 0 1 1 2 2 2 2 1 2 2 4 5 3 -0 -3 -4
0 0 -0 -0 -0 0 1 -0 -0 -0 -0 -1 -1 -1 -1 -1 -1 -1 -1 -1 -1 -1 -2 -2 -2 -2 -2 -2 -2 -2 -2 -1 -1 -1 -0 0 1 1 2 2 1 0 -1 -0 -1 -1 -2 -1 -1 -0 -0 -0 -0 -0 -0 -1 -1 -0 0 1 1 0 -0 -1 -1 -2 -3 -2 -1 0 0 -0 -0 -0 -0 -0 0 0 0 0 0 0 0 0 -0 0 0 1 0 0 0 0 1 1 1 0 1 3 5 6 2 -2 -5
-0 -0 -0 -0 0 0 0 -0 -0 -1 -1 -1 -1 -1 -1 -1 -1 -1 -1 -1 -1 -2 -2 -1 -1 -1 -2 -2 -2 -2 -2 -2 -2 -2 -1 -1 -1 -0 2 2 1 -1 -3 -2 -1 -1 -2 -2 -1 -0 0 1 0 -1 -1 -1 -0 0 1 1 1 1 1 0 -1 -1 -2 -2 -2 -1 0 1 1 0 -0 -0 0 0 0 0 0 0 0 0 0 -0 -0 0 0 -0 -0 -0 -0 -0 -1 -1 -1 -0 1 3 2 -1 -4
-0 -0 -0 -0 -0 -0 -0 -0 -0 -1 -1 -1 -1 -1 -1 -1 -1 -1 -1 -1 -1 -2 -2 -1 -1 -1 -1 -1 -0 -0 0 -1 -2 -1 -2 -2 -3 -3 -2 -1 -1 -2 -2 -2 -2 -2 -1 -1 -1 -1 -0 1 1 -0 -2 -1 0 1 1 1 2 3 2 -0 -1 -0 1 0 -1 -2 -3 -0 1 2 1 0 0 0 1 1 1 1 1 0 0 0 -0 -0 -0 -0 -0 -0 -1 -1 -1 -1 -1 -1 -1 1 2 1 -2
-0 -0 -0 -0 -0 -0 -0 0 -0 -1 -1 -1 -1 -1 -1 -1 -1 -1 -0 -0 -1 -2 -3 -2 -1 -1 -0 -0 0 1 2 1 0 0 -1 -2 -3 -3 -3 -2 -1 -1 -0 -0 -1 -1 -1 -1 -1 -1 -1 1 1 0 -1 0 1 1 2 2 3 2 0 -1 -0 1 2 2 1 -1 -5 -2 1 3 2 1 1 0 1 1 1 1 1 1 0 0 -0 -0 -1 -1 -1 -1 -1 -1 -1 -1 -1 -1 -1 -0 2 3 -1
-0 -0 -0 -0 -0 -1 -1 -0 -0 -0 -1 -1 -1 -1 -1 -1 -1 -1 -1 -0 -0 -1 -2 -3 -2 -1 -1 -1 -1 -1 -1 0 1 2 3 1 -1 -3 -4 -3 -2 -1 0 0 0 -0 -0 0 -0 -1 -1 -0 0 1 1 1 2 2 3 3 2 1 -1 -0 1 2 1 1 1 1 -2 -3 -0 2 3 2 1 1 0 1 1 1 1 1 1 0 0 -0 -0 -1 -1 -1 -1 -1 -1 -1 -1 -1 -1 0 3 4 1
-0 -1 -0 -0 -1 -1 -1 -1 -1 -1 -1 -2 -2 -1 -1 -1 -1 -1 -1 -1 -1 -0 -0 -2 -3 -2 -1 -1 -1 -1 -1 -1 -0 1 3 2 -0 -2 -2 -3 -4 -3 -2 -1 -1 -0 0 0 -1 -2 -2 -1 0 1 2 3 3 4 3 1 1 0 -0 1 1 1 1 1 1 2 1 -0 -0 1 2 2 2 1 0 0 0 0 0 0 0 0 -0 -0 -0 -0 -1 -1 -1 -2 -1 -1 -1 -1 -1 -1 1 3 3
-1 -1 -1 -1 -1 -0 -0 -1 -1 -1 -2 -2 -2 -1 -1 -1 -1 -1 -1 -2 -2 -1 -0 -1 -2 -3 -2 -1 -0 -0 -1 -1 -1 -1 -1 -0 -1 -1 -1 -1 -2 -3 -3 -2 -2 -1 -1 -1 -1 -2 -3 -1 -0 1 2 2 1 0 -0 -1 -1 -1 -0 1 1 1 0 1 1 2 2 1 1 -0 0 1 1 0 0 0 0 0 0 -0 -0 -0 -0 0 0 0 -0 -1 -1 -1 -2 -1 -1 -1 -1 -1 -1 0 3
-1 -1 -1 -1 -0 -0 -0 -0 -1 -2 -3 -2 -1 -1 -1 -1 -1 -1 -1 -2 -2 -2 -0 -0 -2 -3 -3 -1 -1 -1 -1 -1 -1 -2 -2 -2 -2 -2 -1 -0 0 -0 -2 -2 -2 -1 -1 -1 -1 -1 -1 -1 0 1 2 1 -0 -1 -1 -1 -2 -2 -0 0 0 0 1 1 1 1 2 2 1 1 -0 -0 -1 -1 -2 -1 0 1 1 -0 -0 -1 -0 -0 0 0 0 -0 -1 -1 -2 -1 -1 -1 -0 -0 -1 -1 -0
-0 -0 -0 -0 -0 0 0 -0 -1 -3 -3 -2 -1 -1 -1 -1 -1 -1 -1 -1 -2 -2 -1 0 -1 -2 -4 -3 -3 -2 -2 -2 -1 -1 -1 -2 -3 -4 -5 -3 -1 -0 -1 -1 -1 -1 -1 -1 -1 -1 -1 -0 0 1 1 1 1 1 1 1 0 0 0 0 1 1 0 0 0 1 1 1 2 1 1 0 -0 -1 -3 -3 -1 1 2 1 0 -0 -1 -0 -0 -0 -0 -1 -1 -1 -2 -1 -1 -1 -0 0 0 -0 -1
-0 -0 -0 -0 0 0 -0 -1 -2 -3 -3 -2 -1 -1 -1 -1 -1 -1 -0 -1 -1 -2 -2 -0 0 -0 -1 -4 -5 -5 -5 -4 -3 -1 0 -0 -2 -3 -4 -4 -3 -3 -3 -2 -2 -2 -1 -0 -1 -1 -1 -0 0 1 1 1 2 2 2 2 2 2 1 1 0 0 -0 -0 -0 0 1 1 1 1 1 0 1 0 -1 -3 -3 -1 2 2 1 -0 -1 -0 -0 -1 -1 -2 -2 -2 -2 -1 -1 -1 -1 -0 1 1 0
-0 -0 -0 -0 -0 -0 -0 -1 -2 -3 -3 -2 -1 -1 -1 -0 -0 -0 -0 -0 -1 -1 -2 -2 -1 1 2 0 -2 -3 -3 -4 -4 -3 -0 -0 -2 -2 0 5 5 3 -0 -3 -4 -4 -3 -1 -1 -1 -1 -1 -0 -0 0 1 1 2 2 2 3 2 1 0 -0 -0 -0 -0 -0 0 0 1 1 1 0 1 1 1 0 -1 -2 -2 -1 -0 -0 -0 0 1 0 -1 -2 -2 -2 -2 -2 -2 -1 -1 -1 -1 0 1 1
-0 0 0 0 -0 -0 -0 -1 -2 -2 -2 -1 -1 -0 0 -0 0 0 0 1 0 -0 -1 -3 -2 1 2 2 2 4 6 4 0 -3 -2 -2 -2 -0 3 8 12 15 20 11 2 -5 -4 -3 -1 -1 -1 -2 -2 -1 -1 0 1 2 2 2 3 3 2 0 -0 -0 0 0 -0 -0 0 0 1 1 0 0 1 1 0 0 -0 -1 -1 -3 -4 -3 -1 1 2 0 -1 -2 -2 -2 -2 -2 -1 -1 -1 -1 -1 0 1
0 0 1 1 1 0 0 0 -1 -2 -2 -1 -0 0 0 0 0 1 1 2 2 2 1 -3 -3 -2 1 1 1 3 8 8 4 -1 -2 -3 2 6 7 1 -2 -4 -7 6 5 -1 -4 -2 0 1 1 -1 -2 -2 -1 -0 1 1 2 2 3 3 1 0 0 0 1 0 -0 -0 -0 0 0 0 0 0 0 1 0 0 0 0 1 -1 -3 -5 -5 -1 -0 -1 -2 -2 -2 -2 -2 -2 -1 -1 -1 -1 -1 -0 1
0 0 1 1 1 1 1 1 -0 -1 -2 -1 0 1 0 1 0 0 0 2 3 3 2 -0 -2 -3 -4 -3 -2 -0 4 6 3 -1 -4 -3 2 6 4 -2 -7 -9 -11 3 9 6 -4 -3 0 3 3 1 -1 -2 -1 -0 0 1 1 2 2 2 -0 0 1 1 1 0 -1 -1 -1 -0 -0 0 0 0 0 0 -0 0 0 0 1 0 -1 -3 -4 -2 -2 -2 -2 -2 -2 -2 -1 -1 -1 -0 -0 -0 -0 -0 1
-0 0 0 1 1 1 0 1 0 -0 -2 -2 -1 0 0 1 1 0 -0 1 2 3 3 1 1 1 -1 -3 -4 -4 -2 2 1 -2 -3 -3 -1 -0 -2 -6 -7 -5 1 2 5 6 -0 6 4 -0 1 2 0 -1 0 1 1 1 1 2 2 1 1 1 1 2 2 1 -0 -1 -1 -1 -0 0 1 0 0 -0 -0 0 0 0 0 0 -1 -2 -4 -2 -2 -2 -2 -1 -1 -1 -1 -0 -0 0 0 0 0 0 0
-1 -0 0 0 1 1 -0 -0 0 1 -0 -2 -1 -0 0 1 1 1 0 -1 -0 1 3 3 2 2 4 3 2 1 4 1 -2 -3 -3 -2 -0 1 -1 -6 -7 -3 5 5 -0 -5 -5 13 13 5 -2 1 1 -0 0 2 2 1 2 2 2 1 1 1 1 2 2 2 1 0 -1 -1 -1 0 1 1 -0 -0 -0 0 0 -0 -0 0 -0 -1 -3 -2 -2 -2 -2 -0 1 1 -0 -0 -0 0 0 1 1 1 0
-1 -1 -0 0 1 1 -0 -0 0 1 1 -1 -2 -1 0 1 2 2 2 1 -1 -1 0 1 2 2 2 2 3 6 13 6 0 -4 -4 -4 -1 2 3 -2 -4 -1 4 1 -1 -2 -0 11 16 13 5 3 1 -1 -2 -0 1 1 3 3 2 1 1 1 1 2 2 1 1 1 1 -0 -0 -0 1 0 -0 -0 0 0 -0 -0 -0 0 -0 -1 -3 -2 -2 -3 -4 -1 0 1 1 0 -0 0 0 1 1 1 1
-1 -0 -0 -0 0 0 1 1 1 0 1 -1 -3 -3 -2 1 2 3 2 5 6 4 0 -1 0 2 3 2 1 3 11 11 5 0 -1 -2 -2 -0 3 1 0 0 0 0 1 5 16 4 4 11 18 7 3 3 3 -2 -3 -1 0 3 3 2 -0 0 1 2 2 1 1 0 -0 1 1 0 -0 -0 -1 -1 -0 -0 -0 -0 0 1 0 -1 -2 -1 -1 -2 -4 -3 -1 -0 0 -0 -0 -0 -0 0 1 2 2
-1 -0 -0 -0 0 1 1 2 1 1 3 2 -1 -4 -5 -2 1 4 4 5 6 6 4 1 -1 -0 2 4 3 2 3 11 10 6 1 -0 -1 -0 2 1 -1 -1 3 1 1 3 7 0 -1 3 13 7 4 3 3 -4 -6 -5 -3 0 2 3 1 1 1 1 2 2 1 -0 -3 -0 1 1 0 -0 -1 -1 -1 -1 -0 -0 0 1 0 -0 -1 -1 -1 -2 -3 -2 -2 -1 -1 -1 -1 -1 -1 -0 1 1 2
-1 -1 -0 1 1 1 2 1 1 2 5 6 3 -1 -6 -4 -1 2 4 4 4 5 5 4 1 -1 -1 1 2 1 -1 2 10 13 4 -2 -3 -1 3 3 1 -1 -3 -5 -5 -3 -2 -3 -3 -2 1 4 2 -0 2 -2 -4 -4 -3 -2 -0 1 2 2 1 1 1 1 1 0 -3 -3 -1 1 1 0 -0 -1 -2 -1 -1 -0 0 1 0 -0 -1 -1 -2 -2 -2 -1 -1 -1 -1 -1 -2 -1 -1 -1 -0 0 1
-1 -1 -0 1 1 1 0 -0 0 2 4 7 6 2 -4 -4 -3 -0 2 3 3 3 5 5 4 1 -0 -1 -1 -1 -2 -1 5 9 5 -3 -6 -5 0 5 4 2 1 -1 -1 -0 1 -1 -3 -3 1 2 2 2 1 -2 -1 -0 -1 -2 -2 -0 2 2 2 2 4 1 0 0 -1 -3 -2 0 1 1 -0 -1 -1 -1 -1 -0 0 0 0 -0 -1 -2 -3 -3 -2 -0 -0 -1 -2 -2 -2 -2 -1 -1 -1 -1 -0
-0 -0 -0 1 1 1 0 -0 1 2 2 4 4 3 -1 -3 -2 -1 1 1 2 2 3 4 4 4 2 -0 -2 -4 -4 -3 1 5 3 -0 -5 -8 -6 -1 2 2 1 -1 -1 0 2 0 -0 1 4 -0 0 4 8 2 1 1 2 -0 -1 -1 1 2 2 2 2 -2 -1 1 1 -1 -1 -0 0 0 0 -0 -1 -1 -0 -0 0 0 -0 -0 -0 -1 -3 -4 -3 -1 -0 -1 -2 -2 -2 -2 -1 -2 -1 -1 -1
1 1 1 1 2 3 3 1 1 1 1 -0 -0 -1 -2 -3 -3 -2 -0 -1 0 2 3 3 4 4 2 -0 -2 -4 -4 -2 1 3 3 2 -1 -6 -7 -3 -1 -1 -2 -4 -3 -1 2 1 2 3 1 -2 -3 -2 -0 3 4 6 9 3 0 -1 0 2 1 -1 -3 -2 0 2 1 0 -0 -0 0 0 0 -0 -1 -0 -0 0 0 -0 -0 -0 -0 -1 -2 -3 -3 -1 -1 -1 -1 -1 -1 -1 -1 -1 -1 -1 -1
Height
1563 1564 1564 1565 1565 1566 1566 1566 1567 1567 1567 1568 1568 1568 1568 1569 1569 1569 1569 1570 1570 1570 1570 1571 1571 1571 1571 1572 1572 1572 1572 1572 1572 1572 1573 1573 1573 1573 1573 1573 1573 1573 1572 1572 1571 1571 1572 1573 1574 1574 1574 1574 1574 1574 1574 1574 1573 1573 1572 1572 1572 1571 1571 1571 1571 1572 1571 1571 1571 1570 1570 1570 1569 1569 1569 1569 1569 1569 1569 1569 1569 1568 1568 1568 1567 1567 1567 1567 1566 1566 1566 1566 1565 1565 1565 1565 1564 1564 1564 1563 1563 1563 1563
1564 1565 1565 1566 1566 1566 1567 1567 1567 1568 1568 1568 1569 1569 1569 1569 1570 1570 1570 1570 1571 1571 1571 1571 1572 1572 1572 1572 1572 1573 1573 1573 1573 1573 1573 1573 1573 1573 1573 1573 1573 1573 1573 1573 1572 1572 1573 1574 1574 1574 1574 1574 1574 1575 1575 1574 1574 1573 1573 1572 1572 1572 1572 1572 1572 1572 1572 1572 1571 1571 1570 1570 1570 1569 1569 1570 1570 1570 1570 1569 1569 1569 1568 1568 1568 1567 1567 1567 1566 1566 1566 1566 1565 1565 1565 1565 1564 1564 1564 1564 1563 1563 1563
1565 1565 1566 1566 1566 1567 1567 1568 1568 1568 1569 1569 1569 1570 1570 1570 1570 1570 1571 1571 1571 1571 1572 1572 1572 1572 1573 1573 1573 1573 1573 1574 1574 1574 1574 1574 1574 1574 1574 1574 1574 1574 1574 1573 1573 1573 1573 1574 1575 1575 1575 1575 1575 1575 1576 1575 1574 1574 1573 1573 1573 1572 1572 1572 1572 1572 1572 1572 1571 1571 1571 1570 1570 1570 1570 1570 1570 1570 1570 1569 1569 1569 1569 1568 1568 1568 1567 1567 1567 1566 1566 1566 1566 1565 1565 1565 1564 1564 1564 1563 1563 1563 1563
1565 1566 1566 1566 1567 1567 1568 1568 1569 1569 1569 1570 1570 1570 1570 1571 1571 1571 1571 1571 1572 1572 1572 1573 1573 1573 1573 1574 1574 1574 1574 1574 1574 1574 1575 1575 1575 1575 1575 1575 1575 1575 1574 1574 1573 1573 1574 1575 1575 1575 1575 1575 1576 1576 1576 1576 1575 1574 1574 1573 1573 1573 1572 1572 1572 1572 1572 1572 1571 1571 1571 1570 1570 1570 1570 1570 1570 1569 1569 1569 1569 1569 1569 1568 1568 1568 1567 1567 1567 1566 1566 1566 1566 1565 1565 1564 1564 1564 1564 1563 1563 1563 1563
1566 1566 1566 1567 1567 1568 1568 1569 1569 1569 1570 1570 1570 1571 1571 1571 1571 1571 1572 1572 1572 1573 1573 1573 1574 1574 1574 1574 1574 1575 1575 1575 1575 1575 1575 1575 1575 1575 1575 1575 1575 1575 1575 1574 1574 1574 1575 1575 1576 1576 1576 1576 1576 1576 1577 1576 1576 1575 1574 1574 1574 1573 1573 1572 1572 1572 1572 1572 1571 1571 1571 1571 1570 1570 1570 1570 1570 1569 1569 1569 1569 1569 1569 1568 1568 1568 1567 1567 1567 1566 1566 1566 1565 1565 1565 1564 1564 1564 1564 1563 1563 1563 1563
1566 1566 1567 1567 1568 1568 1569 1569 1569 1570 1570 1571 1571 1571 1571 1572 1572 1572 1572 1573 1573 1573 1574 1574 1574 1574 1575 1575 1575 1575 1575 1575 1575 1575 1576 1576 1576 1576 1576 1576 1576 1576 1575 1575 1575 1575 1575 1576 1576 1576 1576 1576 1576 1576 1577 1576 1576 1575 1575 1574 1574 1574 1573 1573 1572 1572 1572 1572 1572 1571 1571 1571 1571 1571 1570 1570 1570 1570 1569 1569 1569 1569 1568 1568 1568 1567 1567 1567 1566 1566 1566 1566 1565 1565 1565 1565 1564 1564 1564 1563 1563 1563 1563
1567 1567 1567 1568 1568 1569 1569 1570 1570 1570 1571 1571 1571 1572 1572 1572 1573 1573 1573 1573 1574 1574 1574 1574 1575 1575 1575 1575 1575 1575 1576 1576 1576 1576 1576 1576 1576 1576 1576 1576 1576 1576 1576 1576 1575 1575 1575 1576 1576 1576 1576 1576 1576 1577 1577 1576 1576 1575 1575 1575 1574 1574 1573 1573 1573 1572 1572 1572 1572 1571 1571 1571 1571 1571 1571 1571 1570 1570 1570 1569 1569 1569 1568 1568 1568 1567 1567 1567 1566 1566 1566 1566 1566 1565 1565 1565 1564 1564 1564 1564 1563 1563 1563
1568 1568 1569 1569 1569 1570 1570 1570 1571 1571 1571 1571 1572 1572 1573 1573 1573 1573 1573 1574 1574 1574 1574 1575 1575 1575 1575 1576 1576 1576 1576 1576 1576 1576 1576 1576 1576 1576 1576 1576 1576 1576 1576 1576 1576 1576 1575 1576 1576 1576 1576 1576 1576 1577 1577 1576 1576 1575 1575 1575 1574 1574 1573 1573 1573 1573 1572 1572 1572 1572 1571 1571 1571 1571 1571 1571 1571 1570 1570 1570 1569 1569 1568 1568 1568 1567 1567 1567 1566 1566 1566 1566 1566 1565 1565 1565 1565 1564 1564 1564 1563 1563 1563
1569 1569 1570 1570 1570 1570 1571 1571 1571 1571 1572 1572 1572 1573 1573 1573 1573 1573 1574 1574 1574 1574 1575 1575 1575 1576 1576 1576 1576 1576 1576 1576 1576 1576 1577 1577 1577 1577 1577 1577 1576 1576 1576 1576 1576 1576 1576 1576 1576 1576 1576 1576 1576 1577 1577 1576 1576 1575 1575 1575 1574 1574 1573 1573 1573 1573 1573 1572 1572 1572 1572 1572 1572 1571 1571 1571 1571 1571 1570 1570 1569 1569 1569 1568 1568 1567 1567 1567 1566 1566 1566 1566 1566 1565 1565 1565 1565 1564 1564 1564 1564 1563 1563
1569 1570 1570 1570 1571 1571 1571 1571 1571 1572 1572 1572 1572 1573 1573 1573 1573 1574 1574 1574 1575 1575 1575 1575 1576 1576 1576 1576 1576 1576 1577 1577 1577 1577 1577 1577 1577 1577 1577 1577 1577 1577 1577 1576 1576 1576 1576 1576 1576 1577 1577 1577 1577 1577 1577 1576 1576 1575 1575 1575 1574 1574 1573 1573 1573 1573 1573 1573 1573 1572 1572 1572 1572 1572 1571 1571 1571 1571 1570 1570 1570 1569 1569 1568 1568 1568 1567 1567 1566 1566 1566 1566 1565 1565 1565 1565 1564 1564 1564 1564 1564 1563 1563
1570 1570 1570 1571 1571 1571 1571 1572 1572 1572 1572 1573 1573 1573 1573 1574 1574 1574 1574 1575 1575 1575 1576 1576 1576 1576 1576 1576 1577 1577 1577 1577 1577 1577 1577 1577 1577 1577 1577 1577 1577 1577 1577 1577 1577 1576 1576 1576 1577 1577 1577 1577 1577 1576 1576 1576 1576 1575 1575 1575 1574 1574 1573 1573 1573 1573 1573 1573 1573 1573 1572 1572 1572 1572 1572 1571 1571 1571 1571 1570 1570 1570 1569 1569 1568 1568 1567 1567 1566 1566 1566 1566 1565 1565 1565 1564 1564 1564 1564 1564 1563 1563 1563
1570 1570 1570 1571 1571 1571 1572 1572 1572 1572 1573 1573 1573 1573 1574 1574 1574 1575 1575 1575 1575 1576 1576 1576 1576 1576 1577 1577 1577 1577 1577 1577 1577 1577 1577 1577 1577 1577 1577 1577 1577 1577 1577 1577 1577 1576 1576 1577 1577 1577 1577 1577 1577 1576 1576 1576 1576 1576 1575 1575 1574 1574 1574 1574 1574 1573 1573 1573 1573 1573 1573 1572 1572 1572 1572 1572 1571 1571 1571 1571 1570 1570 1569 1569 1569 1568 1568 1567 1567 1566 1566 1566 1565 1565 1565 1564 1564 1564 1564 1564 1563 1563 1563
1570 1570 1571 1571 1571 1571 1572 1572 1572 1573 1573 1573 1574 1574 1574 1574 1575 1575 1575 1575 1576 1576 1576 1576 1577 1577 1577 1577 1577 1577 1577 1577 1578 1578 1578 1578 1578 1578 1578 1578 1577 1577 1577 1577 1577 1576 1577 1578 1578 1577 1577 1577 1577 1576 1576 1576 1576 1576 1575 1575 1574 1574 1574 1574 1574 1574 1573 1573 1573 1573 1573 1573 1572 1572 1572 1572 1571 1571 1571 1571 1570 1570 1570 1569 1569 1568 1568 1568 1567 1567 1566 1566 1566 1565 1565 1565 1564 1564 1564 1564 1563 1563 1563
1571 1571 1571 1571 1571 1571 1572 1572 1572 1573 1573 1573 1574 1574 1574 1575 1575 1575 1576 1576 1576 1576 1576 1577 1577 1577 1577 1577 1577 1578 1578 1578 1578 1578 1578 1578 1578 1578 1578 1578 1578 1578 1577 1577 1577 1577 1578 1578 1578 1578 1577 1577 1577 1576 1576 1576 1576 1576 1575 1575 1574 1574 1574 1574 1574 1574 1573 1573 1573 1573 1573 1573 1573 1572 1572 1572 1571 1571 1571 1571 1570 1570 1569 1569 1569 1568 1568 1568 1567 1567 1567 1566 1566 1566 1565 1565 1565 1564 1564 1564 1563 1563 1563
1572 1572 1572 1572 1572 1572 1572 1572 1573 1573 1573 1574 1574 1574 1575 1575 1575 1576 1576 1576 1576 1576 1577 1577 1577 1577 1577 1578 1578 1578 1578 1578 1578 1578 1578 1578 1578 1578 1578 1578 1578 1578 1578 1577 1577 1578 1579 1578 1578 1578 1577 1577 1577 1576 1576 1576 1576 1576 1575 1575 1575 1574 1574 1574 1574 1574 1574 1573 1573 1573 1573 1573 1573 1573 1572 1572 1572 1571 1571 1571 1570 1570 1569 1569 1569 1568 1568 1568 1567 1567 1567 1566 1566 1566 1566 1565 1565 1565 1564 1564 1563 1563 1563
1572 1572 1573 1573 1573 1573 1573 1573 1574 1574 1574 1574 1575 1575 1575 1575 1576 1576 1576 1576 1576 1577 1577 1577 1577 1578 1578 1578 1578 1578 1578 1578 1578 1578 1578 1578 1578 1578 1578 1578 1578 1578 1578 1577 1578 1579 1579 1579 1578 1578 1577 1577 1577 1576 1576 1576 1576 1576 1575 1575 1575 1574 1574 1574 1574 1574 1574 1573 1573 1573 1573 1573 1573 1573 1572 1572 1572 1571 1571 1571 1570 1570 1569 1569 1569 1568 1568 1568 1567 1567 1567 1566 1566 1566 1566 1565 1565 1565 1564 1564 1564 1563 1563
1572 1573 1573 1573 1574 1574 1574 1575 1575 1575 1575 1575 1575 1576 1576 1576 1576 1576 1576 1576 1576 1577 1577 1577 1577 1578 1578 1578 1578 1578 1578 1578 1578 1578 1578 1578 1578 1578 1578 1578 1578 1578 1578 1577 1578 1579 1579 1579 1578 1578 1577 1577 1577 1576 1576 1576 1576 1576 1575 1575 1575 1574 1574 1574 1574 1574 1574 1574 1573 1573 1573 1573 1573 1572 1572 1572 1572 1571 1571 1571 1570 1570 1570 1569 1569 1568 1568 1567 1567 1567 1566 1566 1566 1566 1566 1566 1565 1565 1565 1564 1564 1564 1563
1572 1573 1573 1574 1574 1574 1575 1575 1575 1576 1576 1576 1576 1576 1576 1576 1576 1576 1576 1576 1576 1577 1577 1577 1577 1577 1578 1578 1578 1578 1578 1578 1578 1578 1578 1578 1578 1578 1578 1578 1578 1578 1577 1578 1578 1579 1579 1579 1578 1578 1577 1577 1576 1576 1576 1576 1576 1576 1575 1575 1575 1575 1574 1574 1574 1574 1574 1573 1573 1573 1573 1572 1572 1572 1572 1572 1571 1571 1571 1571 1570 1570 1570 1569 1569 1568 1568 1568 1567 1567 1566 1566 1566 1566 1566 1565 1565 1565 1564 1564 1564 1564 1563
1573 1573 1574 1574 1574 1575 1575 1575 1576 1576 1576 1576 1576 1576 1576 1576 1576 1576 1576 1576 1577 1577 1577 1577 1577 1577 1577 1578 1578 1578 1578 1578 1578 1578 1578 1578 1578 1578 1578 1578 1578 1578 1578 1578 1578 1578 1579 1579 1578 1578 1578 1577 1576 1576 1576 1576 1576 1576 1575 1575 1575 1575 1574 1574 1574 1574 1573 1573 1573 1573 1572 1572 1572 1572 1571 1571 1571 1571 1571 1571 1570 1570 1570 1570 1569 1569 1568 1568 1567 1567 1566 1566 1566 1566 1565 1565 1565 1565 1564 1564 1564 1564 1563
1573 1573 1574 1574 1574 1575 1575 1575 1575 1576 1576 1576 1576 1576 1576 1576 1576 1576 1576 1577 1577 1577 1577 1577 1577 1577 1578 1578 1578 1578 1578 1578 1578 1578 1578 1578 1578 1578 1578 1578 1578 1578 1578 1578 1578 1578 1578 1578 1578 1578 1577 1577 1576 1576 1576 1576 1576 1575 1575 1575 1575 1575 1574 1574 1574 1573 1573 1573 1573 1572 1572 1572 1572 1572 1571 1571 1571 1571 1571 1571 1570 1570 1570 1570 1569 1569 1568 1568 1567 1567 1566 1566 1566 1566 1565 1565 1565 1564 1564 1564 1564 1563 1563
1573 1573 1573 1574 1574 1574 1575 1575 1575 1575 1576 1576 1576 1576 1576 1576 1576 1576 1576 1577 1577 1577 1577 1577 1577 1577 1578 1578 1578 1578 1578 1578 1578 1578 1578 1578 1578 1578 1578 1578 1578 1578 1578 1578 1578 1578 1578 1578 1578 1577 1577 1577 1577 1576 1575 1575 1575 1575 1575 1575 1575 1575 1574 1574 1574 1573 1573 1572 1572 1572 1572 1572 1572 1571 1571 1571 1571 1571 1571 1571 1570 1570 1570 1570 1569 1569 1569 1568 1568 1567 1567 1566 1566 1566 1565 1565 1565 1564 1564 1564 1564 1563 1563
1572 1573 1573 1573 1574 1574 1574 1575 1575 1575 1576 1576 1576 1576 1576 1576 1576 1576 1576 1576 1576 1577 1577 1577 1577 1577 1578 1578 1578 1578 1578 1578 1578 1578 1578 1578 1578 1578 1578 1578 1578 1578 1578 1578 1578 1578 1578 1578 1577 1577 1577 1577 1576 1576 1575 1575 1575 1575 1575 1575 1575 1574 1574 1574 1573 1573 1573 1572 1572 1572 1572 1571 1571 1571 1571 1571 1571 1571 1571 1571 1570 1570 1570 1570 1569 1569 1569 1568 1568 1567 1567 1566 1566 1566 1566 1565 1565 1565 1564 1564 1564 1563 1563
1573 1573 1573 1573 1573 1574 1574 1574 1574 1575 1575 1576 1576 1576 1576 1576 1576 1576 1576 1576 1576 1576 1577 1577 1577 1577 1577 1578 1578 1578 1578 1578 1578 1578 1578 1578 1578 1578 1578 1578 1578 1578 1578 1578 1578 1578 1577 1577 1577 1577 1577 1577 1576 1576 1575 1575 1575 1575 1575 1575 1574 1574 1574 1574 1573 1573 1573 1572 1572 1572 1572 1571 1571 1571 1571 1571 1570 1570 1570 1570 1570 1570 1570 1569 1569 1569 1569 1568 1568 1567 1567 1566 1566 1566 1565 1565 1565 1564 1564 1564 1564 1563 1563
1573 1574 1574 1574 1574 1574 1574 1574 1574 1575 1575 1575 1576 1576 1576 1576 1576 1576 1576 1576 1577 1577 1577 1577 1577 1577 1577 1577 1577 1578 1578 1578 1578 1578 1578 1578 1578 1578 1578 1578 1578 1578 1578 1578 1578 1577 1577 1577 1577 1577 1576 1576 1576 1576 1575 1575 1575 1574 1574 1574 1574 1574 1574 1573 1573 1573 1572 1572 1572 1572 1571 1571 1571 1570 1570 1570 1570 1570 1570 1570 1570 1569 1569 1569 1569 1569 1568 1568 1568 1567 1567 1566 1566 1566 1565 1565 1565 1564 1564 1564 1563 1563 1563
1573 1573 1574 1574 1574 1574 1574 1574 1574 1575 1575 1575 1576 1576 1576 1576 1576 1576 1576 1576 1577 1577 1577 1577 1577 1577 1577 1577 1577 1577 1577 1577 1578 1578 1578 1578 1578 1578 1578 1578 1578 1578 1578 1577 1577 1577 1577 1577 1576 1576 1576 1576 1576 1575 1575 1574 1574 1574 1574 1574 1574 1573 1573 1573 1573 1572 1572 1572 1572 1571 1571 1571 1571 1570 1570 1570 1570 1569 1569 1569 1569 1569 1569 1569 1568 1568 1568 1568 1567 1567 1567 1566 1566 1566 1565 1565 1564 1564 1564 1563 1563 1563 1563
1572 1573 1574 1574 1573 1573 1574 1574 1574 1574 1575 1575 1575 1576 1576 1576 1576 1576 1576 1576 1576 1577 1577 1577 1577 1577 1577 1577 1577 1577 1577 1577 1577 1577 1577 1577 1577 1577 1577 1577 1577 1577 1577 1577 1577 1577 1576 1576 1576 1576 1576 1576 1575 1575 1574 1574 1574 1574 1573 1573 1573 1573 1573 1573 1572 1572 1572 1572 1571 1571 1571 1571 1571 1570 1570 1570 1570 1569 1569 1569 1569 1568 1568 1568 1568 1568 1567 1567 1567 1567 1567 1566 1566 1566 1566 1565 1565 1564 1564 1563 1563 1563 1562
1572 1572 1573 1573 1573 1573 1573 1574 1574 1574 1574 1575 1575 1575 1576 1576 1576 1576 1576 1576 1576 1576 1576 1577 1577 1577 1577 1577 1577 1577 1577 1577 1577 1577 1577 1577 1577 1577 1577 1577 1577 1577 1577 1577 1576 1576 1576 1576 1576 1576 1576 1576 1575 1574 1574 1574 1573 1573 1573 1573 1573 1573 1572 1572 1572 1572 1571 1571 1571 1571 1571 1571 1570 1570 1570 1570 1570 1569 1568 1568 1568 1568 1568 1568 1567 1567 1567 1567 1566 1566 1566 1566 1566 1566 1566 1565 1565 1564 1564 1563 1563 1563 1562
1571 1572 1572 1572 1572 1573 1573 1573 1574 1574 1574 1574 1575 1575 1575 1576 1576 1576 1576 1576 1576 1576 1576 1576 1577 1577 1577 1577 1577 1577 1577 1577 1576 1576 1576 1576 1576 1576 1576 1576 1576 1576 1576 1576 1576 1576 1576 1576 1576 1576 1576 1575 1575 1574 1573 1573 1573 1573 1573 1572 1572 1572 1572 1572 1571 1571 1571 1571 1571 1571 1570 1570 1570 1570 1569 1569 1569 1569 1568 1568 1568 1567 1567 1567 1567 1567 1566 1566 1566 1566 1566 1566 1566 1566 1565 1565 1565 1564 1564 1563 1563 1563 1562
1571 1571 1571 1572 1572 1572 1573 1573 1573 1573 1574 1574 1574 1575 1575 1575 1575 1576 1576 1576 1576 1576 1576 1576 1576 1576 1576 1576 1576 1576 1576 1576 1576 1576 1576 1576 1576 1576 1576 1576 1576 1576 1576 1576 1576 1576 1576 1576 1576 1576 1576 1575 1575 1574 1573 1573 1572 1572 1572 1572 1572 1572 1571 1571 1571 1571 1571 1571 1570 1570 1570 1570 1569 1569 1569 1569 1569 1569 1568 1568 1567 1567 1567 1566 1566 1566 1566 1566 1566 1565 1565 1565 1565 1565 1565 1565 1564 1564 1564 1563 1563 1563 1562
1570 1571 1571 1571 1571 1572 1572 1573 1573 1573 1573 1574 1574 1574 1575 1575 1575 1575 1575 1576 1576 1576 1576 1576 1576 1576 1576 1576 1576 1576 1576 1576 1576 1576 1576 1576 1576 1576 1576 1576 1576 1576 1576 1576 1576 1575 1575 1575 1575 1575 1575 1575 1575 1574 1574 1572 1572 1572 1572 1571 1571 1571 1571 1571 1571 1571 1570 1570 1570 1570 1569 1569 1569 1569 1569 1568 1568 1568 1568 1567 1567 1567 1566 1566 1566 1566 1566 1565 1565 1565 1565 1564 1564 1564 1564 1564 1564 1564 1564 1563 1563 1562 1562
1570 1570 1570 1571 1571 1571 1572 1572 1572 1573 1573 1573 1574 1574 1574 1575 1575 1575 1575 1575 1576 1576 1576 1576 1576 1576 1576 1576 1576 1576 1576 1576 1576 1576 1576 1576 1576 1575 1575 1575 1575 1575 1575 1575 1575 1575 1575 1575 1575 1574 1574 1574 1574 1574 1573 1573 1572 1571 1571 1571 1571 1571 1571 1570 1570 1570 1570 1570 1569 1569 1569 1569 1569 1568 1568 1568 1568 1568 1567 1567 1567 1567 1567 1566 1566 1566 1565 1565 1565 1564 1564 1564 1563 1563 1563 1563 1563 1563 1563 1563 1563 1562 1562
1569 1570 1570 1570 1571 1571 1571 1572 1572 1572 1573 1573 1573 1574 1574 1574 1574 1575 1575 1575 1575 1575 1576 1576 1576 1576 1576 1576 1576 1576 1576 1576 1576 1576 1576 1575 1575 1575 1575 1575 1575 1575 1575 1574 1574 1574 1574 1574 1574 1574 1574 1574 1574 1573 1573 1572 1572 1571 1571 1571 1570 1570 1570 1570 1570 1570 1569 1569 1569 1569 1568 1568 1568 1568 1568 1567 1567 1567 1567 1567 1567 1567 1567 1567 1566 1566 1565 1565 1564 1564 1564 1563 1563 1563 1563 1562 1563 1563 1563 1563 1562 1562 1562
1569 1569 1569 1570 1570 1571 1571 1571 1572 1572 1572 1573 1573 1573 1573 1574 1574 1574 1574 1575 1575 1575 1575 1575 1575 1575 1575 1575 1575 1575 1575 1575 1575 1575 1575 1575 1575 1575 1574 1574 1574 1574 1574 1574 1574 1574 1573 1573 1573 1573 1573 1573 1573 1573 1572 1572 1572 1571 1570 1570 1570 1570 1570 1569 1569 1569 1569 1569 1569 1568 1568 1568 1567 1567 1567 1567 1567 1567 1566 1566 1566 1567 1567 1567 1567 1566 1566 1565 1564 1564 1563 1563 1563 1562 1562 1562 1562 1562 1562 1562 1562 1562 1562
1568 1568 1569 1569 1570 1570 1571 1571 1571 1571 1572 1572 1572 1573 1573 1573 1573 1574 1574 1574 1574 1574 1574 1575 1575 1575 1575 1575 1575 1575 1575 1575 1575 1575 1575 1575 1575 1574 1574 1574 1574 1573 1573 1573 1573 1573 1573 1573 1573 1572 1572 1572 1572 1572 1572 1572 1571 1571 1570 1569 1569 1569 1569 1569 1569 1569 1568 1568 1568 1568 1568 1567 1567 1567 1566 1566 1566 1566 1566 1566 1566 1566 1566 1566 1566 1566 1566 1565 1565 1564 1564 1563 1563 1562 1562 1561 1561 1561 1561 1561 1561 1561 1561
1567 1568 1568 1569 1569 1570 1570 1571 1571 1571 1571 1572 1572 1572 1573 1573 1573 1573 1573 1574 1574 1574 1574 1574 1574 1574 1574 1574 1574 1574 1574 1574 1574 1574 1574 1574 1574 1574 1574 1573 1573 1573 1573 1573 1572 1572 1572 1572 1572 1572 1572 1572 1572 1572 1571 1571 1571 1570 1570 1569 1569 1569 1569 1569 1568 1568 1568 1568 1568 1567 1567 1567 1567 1566 1566 1566 1566 1566 1566 1565 1566 1566 1566 1565 1565 1566 1565 1565 1565 1564 1564 1563 1563 1562 1562 1561 1561 1561 1560 1560 1560 1560 1561
1566 1567 1568 1568 1569 1570 1570 1570 1571 1571 1571 1571 1572 1572 1572 1573 1573 1573 1573 1573 1573 1573 1573 1573 1574 1574 1574 1574 1574 1574 1574 1574 1574 1574 1574 1574 1574 1574 1574 1573 1573 1572 1572 1572 1572 1572 1572 1571 1571 1571 1571 1571 1571 1571 1571 1571 1570 1570 1569 1569 1568 1568 1568 1568 1568 1568 1568 1567 1567 1567 1567 1566 1566 1566 1566 1566 1565 1565 1565 1565 1565 1565 1565 1565 1565 1565 1565 1565 1565 1564 1564 1563 1563 1562 1562 1562 1561 1561 1560 1560 1560 1560 1560
1566 1567 1567 1568 1569 1569 1570 1570 1570 1571 1571 1571 1571 1571 1572 1572 1572 1572 1573 1573 1573 1573 1573 1573 1573 1573 1573 1573 1573 1573 1573 1573 1573 1573 1573 1573 1573 1573 1573 1573 1573 1572 1572 1571 1571 1571 1571 1571 1571 1571 1571 1571 1571 1570 1570 1570 1570 1569 1569 1569 1568 1568 1568 1568 1568 1568 1567 1567 1567 1566 1566 1566 1566 1566 1565 1565 1565 1565 1564 1564 1564 1564 1564 1564 1564 1564 1564 1564 1564 1564 1564 1563 1563 1562 1562 1562 1562 1561 1561 1560 1560 1559 1559
1566 1566 1567 1568 1568 1569 1569 1570 1570 1570 1571 1571 1571 1571 1571 1572 1572 1572 1572 1573 1573 1573 1573 1573 1573 1573 1573 1573 1573 1573 1573 1573 1573 1573 1573 1573 1573 1573 1573 1572 1572 1572 1571 1571 1571 1570 1570 1570 1570 1570 1570 1570 1570 1570 1570 1569 1569 1569 1569 1569 1568 1568 1567 1567 1567 1567 1567 1567 1566 1566 1566 1566 1566 1565 1565 1565 1564 1564 1564 1564 1563 1563 1563 1563 1563 1563 1563 1563 1563 1563 1563 1563 1562 1562 1562 1562 1562 1562 1561 1561 1560 1559 1559
1565 1566 1566 1567 1568 1568 1569 1569 1569 1570 1570 1570 1571 1571 1571 1571 1571 1572 1572 1572 1572 1572 1573 1573 1572 1572 1573 1573 1573 1573 1573 1573 1573 1573 1573 1573 1573 1573 1573 1572 1572 1571 1571 1570 1570 1570 1570 1570 1570 1569 1569 1569 1569 1569 1569 1569 1569 1569 1569 1568 1568 1568 1567 1567 1567 1566 1566 1566 1566 1566 1566 1565 1565 1565 1564 1564 1564 1563 1563 1563 1563 1563 1563 1562 1562 1562 1562 1562 1562 1562 1562 1562 1562 1562 1562 1561 1562 1562 1561 1561 1560 1559 1558
1565 1566 1566 1567 1567 1568 1568 1569 1569 1569 1570 1570 1570 1570 1571 1571 1571 1571 1571 1572 1572 1572 1572 1572 1572 1572 1572 1572 1572 1572 1572 1572 1572 1572 1572 1572 1572 1572 1572 1572 1571 1570 1570 1570 1569 1569 1569 1569 1569 1569 1569 1569 1569 1568 1568 1568 1568 1568 1568 1568 1568 1567 1567 1567 1566 1566 1566 1566 1565 1565 1565 1565 1564 1564 1564 1563 1563 1563 1562 1562 1562 1562 1562 1562 1562 1561 1561 1561 1561 1561 1561 1561 1561 1561 1561 1561 1561 1561 1561 1561 1560 1559 1558
1564 1565 1566 1566 1567 1567 1568 1568 1568 1569 1569 1569 1570 1570 1570 1571 1571 1571 1571 1571 1572 1572 1572 1572 1572 1572 1572 1572 1572 1572 1572 1572 1572 1572 1572 1571 1571 1571 1571 1571 1570 1570 1569 1569 1569 1568 1568 1568 1568 1568 1568 1568 1568 1567 1567 1567 1567 1567 1567 1567 1567 1567 1566 1566 1566 1566 1565 1565 1564 1564 1564 1564 1564 1563 1563 1563 1562 1562 1562 1562 1561 1561 1561 1561 1561 1561 1561 1561 1560 1560 1560 1560 1560 1560 1560 1560 1560 1560 1560 1560 1560 1559 1558
1564 1565 1565 1566 1566 1566 1567 1568 1568 1568 1568 1569 1569 1569 1570 1570 1570 1571 1571 1571 1571 1571 1571 1571 1571 1571 1572 1572 1572 1572 1572 1572 1572 1572 1571 1571 1570 1570 1570 1570 1569 1569 1568 1568 1568 1568 1567 1567 1567 1567 1567 1567 1567 1567 1567 1567 1567 1566 1566 1566 1566 1566 1566 1565 1565 1565 1565 1564 1564 1563 1563 1563 1563 1563 1562 1562 1562 1561 1561 1561 1561 1561 1561 1561 1560 1560 1560 1560 1560 1560 1559 1559 1559 1559 1559 1559 1559 1559 1559 1559 1559 1558 1557
1563 1564 1565 1565 1566 1566 1566 1567 1567 1568 1568 1568 1568 1569 1569 1570 1570 1570 1570 1571 1571 1571 1571 1571 1571 1571 1571 1571 1571 1571 1571 1572 1572 1571 1571 1571 1570 1569 1569 1568 1568 1568 1568 1567 1567 1567 1567 1566 1566 1566 1566 1566 1566 1566 1566 1566 1566 1566 1566 1565 1565 1565 1564 1564 1564 1564 1564 1563 1563 1563 1562 1562 1562 1562 1562 1561 1561 1561 1561 1561 1561 1560 1560 1560 1560 1559 1559 1559 1559 1559 1559 1559 1558 1558 1558 1558 1558 1558 1558 1558 1558 1558 1557
1563 1563 1564 1564 1565 1565 1566 1566 1567 1567 1567 1567 1568 1568 1569 1569 1569 1570 1570 1570 1570 1570 1570 1570 1570 1570 1571 1571 1571 1571 1571 1571 1571 1571 1571 1570 1570 1569 1568 1568 1567 1567 1566 1566 1566 1566 1566 1566 1566 1566 1565 1565 1565 1565 1565 1565 1565 1565 1564 1564 1563 1563 1563 1563 1563 1563 1563 1563 1562 1562 1561 1561 1561 1561 1561 1561 1561 1560 1560 1560 1560 1560 1559 1559 1559 1559 1559 1558 1558 1558 1558 1558 1558 1558 1558 1557 1557 1557 1557 1557 1557 1557 1556
1562 1563 1563 1564 1564 1565 1565 1566 1566 1566 1566 1567 1567 1568 1568 1568 1569 1569 1569 1569 1569 1570 1570 1570 1570 1570 1570 1570 1570 1570 1570 1570 1570 1570 1570 1570 1569 1569 1568 1567 1566 1566 1566 1565 1565 1565 1565 1565 1564 1564 1564 1564 1564 1564 1564 1564 1564 1563 1563 1562 1562 1562 1562 1562 1562 1562 1562 1562 1561 1561 1561 1561 1561 1560 1560 1560 1560 1560 1560 1559 1559 1559 1559 1558 1558 1558 1558 1558 1558 1557 1557 1557 1557 1557 1557 1557 1556 1556 1556 1556 1556 1556 1556
1561 1562 1563 1563 1564 1564 1565 1565 1565 1566 1566 1566 1567 1567 1568 1568 1568 1568 1568 1568 1568 1569 1569 1569 1569 1569 1569 1569 1569 1569 1569 1569 1569 1569 1569 1568 1568 1568 1567 1567 1566 1565 1565 1564 1564 1564 1564 1563 1563 1563 1563 1563 1563 1563 1563 1563 1562 1562 1561 1561 1561 1561 1561 1561 1561 1561 1561 1561 1561 1561 1560 1560 1560 1560 1560 1559 1559 1559 1559 1559 1559 1559 1558 1558 1558 1557 1557 1557 1557 1557 1557 1557 1556 1556 1556 1556 1556 1556 1556 1555 1555 1555 1555
1561 1561 1562 1562 1563 1564 1564 1565 1565 1565 1565 1566 1566 1566 1567 1567 1567 1567 1568 1568 1568 1568 1568 1568 1568 1568 1568 1568 1568 1568 1568 1568 1568 1568 1567 1567 1567 1566 1566 1565 1565 1564 1564 1563 1563 1563 1563 1563 1562 1562 1562 1562 1562 1561 1561 1561 1561 1561 1561 1561 1561 1561 1561 1560 1560 1560 1560 1560 1560 1560 1560 1560 1559 1559 1559 1559 1559 1558 1558 1558 1558 1558 1558 1557 1557 1557 1556 1556 1556 1556 1556 1556 1556 1556 1556 1555 1555 1555 1555 1554 1554 1554 1554
1560 1561 1561 1562 1562 1563 1564 1564 1564 1564 1564 1565 1566 1566 1566 1566 1567 1567 1567 1567 1567 1567 1567 1567 1567 1567 1567 1567 1567 1567 1567 1567 1567 1567 1567 1566 1566 1566 1565 1564 1564 1563 1563 1562 1562 1562 1562 1562 1561 1561 1561 1561 1560 1560 1560 1560 1560 1560 1560 1560 1560 1560 1560 1560 1560 1559 1559 1559 1559 1559 1559 1559 1559 1559 1558 1558 1558 1558 1557 1557 1557 1557 1557 1556 1556 1556 1556 1556 1556 1555 1555 1555 1555 1555 1555 1555 1554 1554 1554 1554 1553 1553 1553
1560 1560 1561 1561 1562 1562 1563 1563 1563 1563 1564 1565 1565 1565 1566 1566 1566 1566 1566 1566 1566 1566 1566 1566 1567 1567 1567 1566 1566 1566 1566 1566 1566 1566 1566 1566 1566 1565 1565 1564 1564 1563 1562 1561 1561 1561 1561 1561 1561 1560 1560 1560 1559 1559 1559 1559 1559 1559 1559 1559 1559 1559 1559 1559 1559 1559 1559 1559 1558 1558 1558 1558 1558 1558 1558 1558 1557 1557 1557 1556 1556 1556 1556 1556 1555 1555 1555 1555 1555 1554 1554 1554 1554 1554 1554 1554 1553 1553 1553 1553 1552 1552 1552
1559 1560 1560 1561 1561 1562 1562 1563 1563 1563 1563 1564 1564 1565 1565 1565 1566 1566 1566 1566 1566 1566 1566 1565 1566 1566 1566 1566 1566 1566 1566 1565 1565 1565 1565 1565 1565 1565 1565 1565 1564 1564 1563 1562 1561 1560 1560 1560 1560 1559 1559 1558 1558 1558 1558 1558 1558 1559 1559 1559 1559 1559 1559 1558 1558 1558 1558 1558 1558 1558 1558 1558 1558 1558 1557 1557 1557 1557 1556 1556 1556 1555 1555 1554 1554 1554 1554 1554 1554 1553 1553 1553 1553 1553 1553 1552 1552 1552 1552 1552 1551 1551 1551
1559 1559 1560 1561 1561 1561 1562 1562 1562 1563 1563 1563 1564 1564 1564 1565 1565 1565 1565 1565 1565 1565 1565 1564 1564 1565 1565 1565 1566 1566 1566 1565 1564 1564 1565 1565 1565 1565 1564 1564 1564 1563 1563 1562 1561 1560 1560 1560 1559 1558 1558 1558 1558 1558 1558 1558 1558 1558 1558 1559 1559 1558 1558 1558 1558 1558 1558 1557 1557 1557 1557 1557 1557 1557 1557 1556 1556 1556 1556 1555 1555 1555 1554 1554 1553 1552 1553 1553 1553 1552 1552 1552 1552 1551 1551 1551 1551 1551 1551 1551 1550 1550 1550
1558 1559 1560 1560 1561 1561 1561 1562 1562 1562 1562 1563 1563 1563 1564 1564 1564 1564 1564 1564 1565 1565 1564 1564 1564 1563 1563 1564 1564 1564 1565 1565 1564 1563 1564 1564 1565 1564 1563 1563 1563 1563 1562 1562 1561 1560 1559 1558 1558 1558 1558 1558 1557 1557 1558 1558 1558 1558 1558 1558 1558 1558 1558 1558 1557 1557 1557 1557 1557 1556 1556 1556 1556 1556 1556 1556 1556 1555 1555 1555 1554 1554 1553 1553 1552 1551 1551 1551 1551 1551 1551 1550 1550 1550 1550 1550 1550 1550 1549 1549 1549 1549 1549
1558 1559 1559 1560 1560 1561 1561 1561 1561 1561 1562 1562 1562 1562 1563 1563 1563 1563 1563 1563 1564 1564 1563 1563 1563 1563 1563 1563 1563 1563 1563 1563 1563 1562 1562 1563 1563 1563 1562 1562 1563 1563 1563 1561 1561 1560 1559 1558 1557 1557 1558 1557 1557 1557 1557 1558 1558 1558 1558 1558 1558 1557 1557 1557 1557 1557 1557 1557 1556 1556 1556 1556 1556 1556 1556 1555 1555 1555 1554 1554 1553 1553 1553 1552 1551 1551 1550 1550 1550 1549 1549 1549 1549 1549 1548 1548 1548 1548 1548 1548 1548 1548 1548
1557 1558 1559 1559 1560 1560 1560 1561 1561 1561 1561 1561 1561 1561 1562 1562 1562 1562 1562 1562 1562 1562 1562 1562 1562 1562 1563 1562 1562 1562 1562 1561 1561 1561 1561 1561 1562 1562 1561 1561 1562 1562 1561 1561 1561 1560 1559 1558 1558 1557 1557 1557 1557 1557 1557 1557 1557 1557 1557 1557 1557 1557 1557 1557 1556 1556 1556 1556 1556 1555 1555 1555 1555 1555 1555 1554 1554 1554 1553 1553 1553 1552 1552 1551 1550 1550 1549 1548 1548 1547 1547 1547 1547 1547 1547 1547 1547 1547 1547 1547 1546 1546 1546
1557 1557 1558 1558 1559 1559 1560 1560 1560 1560 1560 1560 1560 1561 1561 1561 1561 1561 1561 1561 1561 1561 1561 1561 1561 1561 1561 1561 1562 1562 1561 1560 1559 1559 1560 1560 1560 1561 1561 1561 1561 1561 1561 1560 1560 1560 1559 1558 1558 1557 1556 1556 1556 1556 1556 1556 1556 1557 1557 1557 1557 1556 1556 1556 1556 1556 1556 1555 1555 1555 1555 1554 1554 1554 1554 1553 1553 1553 1552 1552 1551 1551 1551 1550 1549 1548 1547 1547 1546 1546 1546 1546 1546 1546 1546 1546 1546 1546 1546 1546 1546 1545 1545
1556 1557 1557 1557 1558 1558 1559 1559 1559 1560 1560 1559 1559 1560 1560 1560 1561 1561 1561 1561 1561 1561 1560 1560 1560 1561 1560 1560 1561 1561 1561 1560 1558 1558 1558 1558 1559 1559 1559 1560 1560 1560 1560 1559 1559 1558 1558 1557 1557 1557 1557 1556 1556 1556 1556 1556 1556 1556 1556 1556 1556 1556 1556 1556 1556 1555 1555 1555 1554 1554 1554 1553 1553 1553 1553 1552 1552 1551 1551 1551 1551 1550 1549 1549 1548 1547 1546 1546 1545 1545 1544 1545 1545 1545 1545 1545 1544 1544 1544 1544 1544 1544 1544
1555 1556 1556 1557 1557 1558 1558 1558 1559 1559 1559 1559 1558 1558 1559 1559 1559 1560 1560 1560 1560 1560 1559 1559 1559 1559 1559 1559 1559 1559 1559 1560 1558 1557 1556 1557 1557 1558 1558 1558 1559 1559 1559 1558 1558 1557 1557 1557 1557 1557 1557 1556 1556 1556 1555 1555 1555 1555 1555 1555 1555 1555 1555 1555 1555 1555 1554 1554 1554 1553 1552 1552 1552 1552 1552 1551 1551 1550 1550 1550 1549 1549 1548 1547 1546 1546 1545 1544 1544 1544 1543 1543 1543 1543 1543 1543 1543 1543 1543 1543 1543 1543 1543
1554 1555 1556 1556 1556 1557 1557 1557 1557 1558 1558 1558 1557 1557 1557 1557 1558 1558 1558 1558 1559 1559 1558 1558 1557 1557 1558 1558 1558 1558 1558 1558 1558 1557 1555 1555 1556 1556 1557 1557 1557 1557 1557 1557 1557 1557 1556 1556 1557 1557 1556 1556 1555 1555 1555 1555 1555 1555 1554 1554 1554 1554 1554 1554 1554 1554 1554 1553 1553 1552 1551 1551 1551 1551 1551 1550 1550 1549 1549 1548 1548 1547 1547 1546 1545 1545 1544 1543 1543 1542 1542 1542 1542 1542 1542 1542 1542 1542 1541 1541 1541 1541 1541
1553 1554 1554 1555 1555 1556 1556 1556 1556 1557 1557 1557 1556 1556 1556 1556 1556 1556 1556 1557 1557 1557 1557 1556 1556 1556 1556 1556 1556 1556 1556 1556 1556 1556 1554 1554 1554 1555 1556 1555 1555 1555 1555 1555 1555 1556 1555 1556 1556 1556 1556 1556 1555 1554 1554 1554 1554 1554 1554 1553 1553 1553 1554 1554 1553 1553 1553 1552 1552 1551 1551 1550 1550 1550 1550 1549 1549 1548 1547 1547 1546 1546 1546 1545 1544 1543 1543 1542 1541 1541 1541 1541 1541 1541 1541 1541 1541 1540 1540 1540 1540 1540 1540
1552 1553 1553 1553 1554 1554 1555 1555 1555 1555 1555 1555 1555 1555 1554 1554 1554 1555 1555 1555 1555 1555 1555 1555 1555 1554 1554 1554 1554 1554 1555 1555 1555 1554 1553 1552 1553 1553 1554 1553 1554 1554 1554 1554 1554 1554 1554 1554 1554 1554 1554 1554 1554 1554 1554 1554 1554 1554 1553 1552 1552 1552 1552 1552 1552 1552 1552 1551 1551 1551 1550 1550 1549 1549 1549 1548 1548 1547 1546 1546 1545 1545 1544 1544 1543 1542 1542 1541 1540 1540 1540 1541 1540 1540 1540 1540 1539 1539 1539 1539 1539 1538 1538
1551 1551 1552 1552 1553 1553 1553 1553 1554 1554 1554 1554 1553 1553 1553 1553 1553 1553 1553 1553 1553 1553 1553 1553 1553 1553 1552 1552 1552 1552 1552 1552 1552 1552 1551 1551 1551 1551 1552 1552 1552 1552 1552 1552 1552 1552 1552 1552 1552 1552 1552 1553 1553 1553 1553 1553 1554 1554 1553 1552 1551 1551 1551 1551 1551 1551 1550 1550 1550 1550 1550 1549 1548 1548 1548 1547 1546 1546 1545 1545 1544 1544 1543 1542 1542 1541 1541 1540 1540 1539 1539 1539 1539 1539 1539 1538 1538 1538 1538 1538 1537 1537 1537